Location: Igri�s
(42.2144°N, 0.4320°W)
Time: 17:53:39
(UTC+00:00)

Cosmos 1850 Rocket - Pass Details

Date: 13 August 2020
Orbit: 755 x 784 km, 74.0° (Epoch: 17 September)

Event Time Altitude Azimuth Distance (km) Brightness Sun altitude
Exits shadow 21:30:33 14° 211° (SSW) 2,045 6.0 -23.1°
Maximum altitude 21:35:03 65° 292° (WNW) 854 4.3 -23.6°
Drops below altitude 10° 21:40:17 10° 14° (NNE) 2,321 6.9 -24.2°
Sets 21:42:42 0° 18° (NNE) 3,246 7.7 -24.5°
